Time,TemperatureF,DewpointF,PressureIn,WindDirection,WindDirectionDegrees,WindSpeedMPH,WindSpeedGustMPH,Humidity,HourlyPrecipIn,Conditions,Clouds,dailyrainin,SoftwareType,DateUTC
2013-01-23 00:05:00,3.7,-8.8,30.18,SW,223,2.2,3.6,55,0.00,,---,0.00,VWS V14.01,2013-01-23 06:05:00,
2013-01-23 00:11:00,3.7,-8.8,30.18,SW,223,0.0,2.2,55,0.00,,---,0.00,VWS V14.01,2013-01-23 06:11:00,
2013-01-23 00:16:00,3.7,-8.8,30.18,SW,223,0.0,0.0,55,0.00,,---,0.00,VWS V14.01,2013-01-23 06:16:00,
2013-01-23 00:21:00,3.9,-8.6,30.18,SW,223,0.0,0.0,55,0.00,,---,0.00,VWS V14.01,2013-01-23 06:21:00,
2013-01-23 00:26:00,4.1,-8.5,30.18,SW,223,0.0,0.0,55,0.00,,---,0.00,VWS V14.01,2013-01-23 06:26:00,
2013-01-23 00:32:00,4.1,-8.5,30.18,SW,223,0.0,0.0,55,0.00,,---,0.00,VWS V14.01,2013-01-23 06:32:00,
2013-01-23 00:37:00,4.1,-8.5,30.18,SW,223,0.0,0.0,55,0.00,,---,0.00,VWS V14.01,2013-01-23 06:37:00,
2013-01-23 00:43:00,4.1,-8.5,30.18,SW,223,0.0,0.0,55,0.00,,---,0.00,VWS V14.01,2013-01-23 06:43:00,
2013-01-23 00:48:00,4.1,-8.5,30.18,SW,223,0.0,0.0,55,0.00,,---,0.00,VWS V14.01,2013-01-23 06:48:00,
2013-01-23 00:53:00,4.1,-8.5,30.18,SW,223,0.0,0.0,55,0.00,,---,0.00,VWS V14.01,2013-01-23 06:53:00,
2013-01-23 00:58:00,4.3,-8.3,30.18,SW,223,0.0,0.0,55,0.00,,---,0.00,VWS V14.01,2013-01-23 06:58:00,
2013-01-23 01:04:00,4.5,-8.1,30.18,SW,223,0.0,0.0,55,0.00,,---,0.00,VWS V14.01,2013-01-23 07:04:00,
2013-01-23 01:10:00,4.5,-8.1,30.18,SW,223,0.0,0.0,55,0.00,,---,0.00,VWS V14.01,2013-01-23 07:10:00,
2013-01-23 01:15:00,4.5,-8.1,30.18,SW,223,0.0,0.0,55,0.00,,---,0.00,VWS V14.01,2013-01-23 07:15:00,
2013-01-23 01:21:00,4.5,-8.1,30.18,SW,223,0.0,0.0,55,0.00,,---,0.00,VWS V14.01,2013-01-23 07:21:00,
2013-01-23 01:26:00,4.6,-8.0,30.18,SW,223,0.0,0.0,55,0.00,,---,0.00,VWS V14.01,2013-01-23 07:26:00,
2013-01-23 01:32:00,4.6,-8.0,30.18,SW,223,2.2,2.2,55,0.00,,---,0.00,VWS V14.01,2013-01-23 07:32:00,
2013-01-23 01:38:00,4.8,-7.8,30.18,SW,223,0.0,0.0,55,0.00,,---,0.00,VWS V14.01,2013-01-23 07:38:00,
2013-01-23 01:43:00,4.8,-7.8,30.15,SW,223,0.0,0.0,55,0.00,,---,0.00,VWS V14.01,2013-01-23 07:43:00,
2013-01-23 01:49:00,5.0,-7.6,30.15,SW,223,2.7,3.6,55,0.00,,---,0.00,VWS V14.01,2013-01-23 07:49:00,
2013-01-23 01:54:00,5.0,-7.6,30.15,SW,223,0.0,0.0,55,0.00,,---,0.00,VWS V14.01,2013-01-23 07:54:00,
2013-01-23 02:00:00,5.0,-7.6,30.15,SW,222,0.0,0.0,55,0.00,,---,0.00,VWS V14.01,2013-01-23 08:00:00,
2013-01-23 02:06:00,5.2,-7.5,30.15,SW,223,0.0,0.0,55,0.00,,---,0.00,VWS V14.01,2013-01-23 08:06:00,
2013-01-23 02:11:00,5.2,-7.5,30.15,SW,223,0.0,0.0,55,0.00,,---,0.00,VWS V14.01,2013-01-23 08:11:00,
2013-01-23 02:17:00,5.0,-7.6,30.15,SW,223,0.0,0.0,55,0.00,,---,0.00,VWS V14.01,2013-01-23 08:17:00,
2013-01-23 02:22:00,5.0,-7.6,30.15,SW,223,0.0,0.0,55,0.00,,---,0.00,VWS V14.01,2013-01-23 08:22:00,
2013-01-23 02:28:00,5.2,-7.5,30.15,SW,223,2.7,2.7,55,0.00,,---,0.00,VWS V14.01,2013-01-23 08:28:00,
2013-01-23 02:34:00,5.4,-7.3,30.15,SW,222,0.0,0.0,55,0.00,,---,0.00,VWS V14.01,2013-01-23 08:34:00,
2013-01-23 02:39:00,5.4,-7.3,30.15,SW,222,0.0,2.2,55,0.00,,---,0.00,VWS V14.01,2013-01-23 08:39:00,
2013-01-23 02:44:00,5.4,-7.3,30.15,SW,222,0.0,0.0,55,0.00,,---,0.00,VWS V14.01,2013-01-23 08:44:00,
2013-01-23 02:49:00,5.4,-7.3,30.15,SW,222,3.6,4.0,55,0.00,,---,0.00,VWS V14.01,2013-01-23 08:49:00,
2013-01-23 02:55:00,5.4,-7.3,30.15,SW,222,3.1,4.0,55,0.00,,---,0.00,VWS V14.01,2013-01-23 08:55:00,
2013-01-23 03:00:00,5.4,-7.3,30.15,SW,222,0.0,0.0,55,0.00,,---,0.00,VWS V14.01,2013-01-23 09:00:00,
2013-01-23 03:05:00,5.5,-7.1,30.15,SW,222,0.0,0.0,55,0.00,,---,0.00,VWS V14.01,2013-01-23 09:05:00,
2013-01-23 03:10:00,5.5,-7.1,30.15,SW,222,0.0,0.0,55,0.00,,---,0.00,VWS V14.01,2013-01-23 09:10:00,
2013-01-23 03:16:00,5.5,-7.1,30.15,SW,222,0.0,0.0,55,0.00,,---,0.00,VWS V14.01,2013-01-23 09:16:00,
2013-01-23 03:21:00,5.5,-7.1,30.15,SW,222,0.0,0.0,55,0.00,,---,0.00,VWS V14.01,2013-01-23 09:21:00,
2013-01-23 03:26:00,5.5,-7.1,30.15,SW,222,0.0,0.0,55,0.00,,---,0.00,VWS V14.01,2013-01-23 09:26:00,
2013-01-23 03:31:00,5.5,-7.1,30.15,SW,222,0.0,0.0,55,0.00,,---,0.00,VWS V14.01,2013-01-23 09:31:00,
2013-01-23 03:37:00,5.5,-7.1,30.15,SW,222,0.0,0.0,55,0.00,,---,0.00,VWS V14.01,2013-01-23 09:37:00,
2013-01-23 03:42:00,5.5,-7.1,30.15,SW,222,0.0,0.0,55,0.00,,---,0.00,VWS V14.01,2013-01-23 09:42:00,
2013-01-23 03:47:00,5.5,-7.1,30.15,SW,222,0.0,0.0,55,0.00,,---,0.00,VWS V14.01,2013-01-23 09:47:00,
2013-01-23 03:53:00,5.5,-7.1,30.15,SW,222,0.0,0.0,55,0.00,,---,0.00,VWS V14.01,2013-01-23 09:53:00,
2013-01-23 03:59:00,5.7,-6.9,30.15,SW,222,0.0,0.0,55,0.00,,---,0.00,VWS V14.01,2013-01-23 09:59:00,
2013-01-23 04:05:00,5.7,-6.9,30.15,SW,222,0.0,0.0,55,0.00,,---,0.00,VWS V14.01,2013-01-23 10:05:00,
2013-01-23 04:10:00,5.7,-6.9,30.15,SW,222,0.0,0.0,55,0.00,,---,0.00,VWS V14.01,2013-01-23 10:10:00,
2013-01-23 04:16:00,5.7,-6.9,30.12,SW,222,0.0,0.0,55,0.00,,---,0.00,VWS V14.01,2013-01-23 10:16:00,
2013-01-23 04:21:00,5.9,-6.8,30.12,SW,222,0.0,0.0,55,0.00,,---,0.00,VWS V14.01,2013-01-23 10:21:00,
2013-01-23 04:27:00,5.9,-6.8,30.12,SW,222,0.0,0.0,55,0.00,,---,0.00,VWS V14.01,2013-01-23 10:27:00,
2013-01-23 04:33:00,5.9,-6.8,30.12,SW,222,0.0,0.0,55,0.00,,---,0.00,VWS V14.01,2013-01-23 10:33:00,
2013-01-23 04:38:00,5.9,-6.8,30.12,SW,222,0.0,0.0,55,0.00,,---,0.00,VWS V14.01,2013-01-23 10:38:00,
2013-01-23 04:44:00,5.9,-6.8,30.12,SW,222,0.0,0.0,55,0.00,,---,0.00,VWS V14.01,2013-01-23 10:44:00,
2013-01-23 04:49:00,5.9,-6.8,30.12,SW,222,0.0,0.0,55,0.00,,---,0.00,VWS V14.01,2013-01-23 10:49:00,
2013-01-23 04:54:00,5.7,-6.9,30.12,SW,222,0.0,0.0,55,0.00,,---,0.00,VWS V14.01,2013-01-23 10:54:00,
2013-01-23 04:59:00,5.5,-7.1,30.12,SW,222,0.0,0.0,55,0.00,,---,0.00,VWS V14.01,2013-01-23 10:59:00,
2013-01-23 05:05:00,5.5,-7.1,30.12,SW,222,0.0,0.0,55,0.00,,---,0.00,VWS V14.01,2013-01-23 11:05:00,
2013-01-23 05:10:00,5.5,-7.1,30.12,SW,222,0.0,0.0,55,0.00,,---,0.00,VWS V14.01,2013-01-23 11:10:00,
2013-01-23 05:15:00,5.4,-7.3,30.12,SW,222,0.0,0.0,55,0.00,,---,0.00,VWS V14.01,2013-01-23 11:15:00,
2013-01-23 05:20:00,5.4,-7.3,30.12,SW,222,0.0,0.0,55,0.00,,---,0.00,VWS V14.01,2013-01-23 11:20:00,
2013-01-23 05:26:00,5.0,-7.6,30.09,SW,222,0.0,0.0,55,0.00,,---,0.00,VWS V14.01,2013-01-23 11:26:00,
2013-01-23 05:31:00,4.8,-7.8,30.09,SW,222,0.0,0.0,55,0.00,,---,0.00,VWS V14.01,2013-01-23 11:31:00,
2013-01-23 05:36:00,4.5,-8.1,30.09,SW,222,0.0,0.0,55,0.00,,---,0.00,VWS V14.01,2013-01-23 11:36:00,
2013-01-23 05:41:00,4.5,-8.1,30.12,SW,222,0.0,0.0,55,0.00,,---,0.00,VWS V14.01,2013-01-23 11:41:00,
2013-01-23 05:46:00,4.5,-8.1,30.12,SW,222,0.0,0.0,55,0.00,,---,0.00,VWS V14.01,2013-01-23 11:46:00,
2013-01-23 05:52:00,4.5,-8.1,30.12,SW,222,0.0,0.0,55,0.00,,---,0.00,VWS V14.01,2013-01-23 11:52:00,
2013-01-23 05:58:00,4.5,-8.1,30.12,SW,222,0.0,0.0,55,0.00,,---,0.00,VWS V14.01,2013-01-23 11:58:00,
2013-01-23 06:04:00,4.8,-7.8,30.12,SW,222,0.0,0.0,55,0.00,,---,0.00,VWS V14.01,2013-01-23 12:04:00,
2013-01-23 06:09:00,5.0,-7.6,30.12,SW,222,0.0,0.0,55,0.00,,---,0.00,VWS V14.01,2013-01-23 12:09:00,
2013-01-23 06:15:00,5.4,-7.3,30.12,SW,222,0.0,0.0,55,0.00,,---,0.00,VWS V14.01,2013-01-23 12:15:00,
2013-01-23 06:20:00,5.4,-7.3,30.12,SW,222,0.0,0.0,55,0.00,,---,0.00,VWS V14.01,2013-01-23 12:20:00,
2013-01-23 06:26:00,5.5,-7.1,30.12,SW,222,0.0,0.0,55,0.00,,---,0.00,VWS V14.01,2013-01-23 12:26:00,
2013-01-23 06:31:00,5.7,-6.9,30.12,SW,222,0.0,0.0,55,0.00,,---,0.00,VWS V14.01,2013-01-23 12:31:00,
2013-01-23 06:37:00,5.7,-6.9,30.12,SW,222,0.0,0.0,55,0.00,,---,0.00,VWS V14.01,2013-01-23 12:37:00,
2013-01-23 06:43:00,5.9,-6.8,30.12,SW,222,0.0,0.0,55,0.00,,---,0.00,VWS V14.01,2013-01-23 12:43:00,
2013-01-23 06:48:00,5.9,-6.8,30.12,SW,222,0.0,0.0,55,0.00,,---,0.00,VWS V14.01,2013-01-23 12:48:00,
2013-01-23 06:54:00,6.1,-6.6,30.12,SW,222,0.0,0.0,55,0.00,,---,0.00,VWS V14.01,2013-01-23 12:54:00,
2013-01-23 06:59:00,6.1,-6.6,30.12,SW,222,0.0,2.7,55,0.00,,---,0.00,VWS V14.01,2013-01-23 12:59:00,
2013-01-23 07:04:00,6.1,-6.6,30.12,SW,222,2.7,2.7,55,0.00,,---,0.00,VWS V14.01,2013-01-23 13:04:00,
2013-01-23 07:09:00,6.3,-6.4,30.12,SW,222,0.0,3.6,55,0.00,,---,0.00,VWS V14.01,2013-01-23 13:09:00,
2013-01-23 07:14:00,6.3,-6.4,30.12,SW,222,0.0,0.0,55,0.00,,---,0.00,VWS V14.01,2013-01-23 13:14:00,
2013-01-23 07:19:00,6.3,-6.4,30.12,SW,222,2.2,2.2,55,0.00,,---,0.00,VWS V14.01,2013-01-23 13:19:00,
2013-01-23 07:25:00,6.4,-6.3,30.12,SW,222,0.0,0.0,55,0.00,,---,0.00,VWS V14.01,2013-01-23 13:25:00,
2013-01-23 07:30:00,6.4,-6.3,30.12,SW,222,0.0,0.0,55,0.00,,---,0.00,VWS V14.01,2013-01-23 13:30:00,
2013-01-23 07:35:00,6.4,-6.3,30.12,SW,222,0.0,0.0,55,0.00,,---,0.00,VWS V14.01,2013-01-23 13:35:00,
2013-01-23 07:40:00,6.6,-6.1,30.12,SW,222,0.0,0.0,55,0.00,,---,0.00,VWS V14.01,2013-01-23 13:40:00,
2013-01-23 07:46:00,6.6,-6.1,30.12,SW,222,0.0,0.0,55,0.00,,---,0.00,VWS V14.01,2013-01-23 13:46:00,
2013-01-23 07:51:00,6.8,-5.9,30.12,SW,222,0.0,0.0,55,0.00,,---,0.00,VWS V14.01,2013-01-23 13:51:00,
2013-01-23 07:57:00,7.0,-5.8,30.12,WSW,252,0.0,3.1,55,0.00,,---,0.00,VWS V14.01,2013-01-23 13:57:00,
2013-01-23 08:02:00,7.0,-5.8,30.12,West,264,4.0,5.4,55,0.00,,---,0.00,VWS V14.01,2013-01-23 14:02:00,
2013-01-23 08:08:00,7.2,-5.6,30.12,West,268,0.0,4.0,55,0.00,,---,0.00,VWS V14.01,2013-01-23 14:08:00,
2013-01-23 08:13:00,7.2,-5.6,30.12,West,261,4.0,4.9,55,0.00,,---,0.00,VWS V14.01,2013-01-23 14:13:00,
2013-01-23 08:19:00,7.2,-5.6,30.12,West,264,4.0,4.0,55,0.00,,---,0.00,VWS V14.01,2013-01-23 14:19:00,
2013-01-23 08:25:00,7.3,-5.4,30.12,West,271,3.6,4.0,55,0.00,,---,0.00,VWS V14.01,2013-01-23 14:25:00,
2013-01-23 08:30:00,7.5,-5.3,30.12,WSW,257,4.0,4.9,55,0.00,,---,0.00,VWS V14.01,2013-01-23 14:30:00,
2013-01-23 08:36:00,7.7,-5.1,30.12,West,278,5.8,5.8,55,0.00,,---,0.00,VWS V14.01,2013-01-23 14:36:00,
2013-01-23 08:41:00,7.9,-4.9,30.12,West,275,3.6,3.6,55,0.00,,---,0.00,VWS V14.01,2013-01-23 14:41:00,
2013-01-23 08:46:00,8.2,-4.6,30.12,WNW,287,4.0,5.4,55,0.00,,---,0.00,VWS V14.01,2013-01-23 14:46:00,
2013-01-23 08:51:00,8.4,-4.4,30.12,West,278,6.3,6.3,55,0.00,,---,0.00,VWS V14.01,2013-01-23 14:51:00,
2013-01-23 08:56:00,8.4,-4.4,30.12,WNW,286,7.6,8.1,55,0.00,,---,0.00,VWS V14.01,2013-01-23 14:56:00,
2013-01-23 09:01:00,8.1,-4.8,30.12,West,277,3.6,6.3,55,0.00,,---,0.00,VWS V14.01,2013-01-23 15:01:00,
2013-01-23 09:07:00,8.1,-4.8,30.12,WNW,293,6.3,6.3,55,0.00,,---,0.00,VWS V14.01,2013-01-23 15:07:00,
2013-01-23 09:12:00,8.2,-4.6,30.12,WNW,296,9.6,9.6,55,0.00,,---,0.00,VWS V14.01,2013-01-23 15:12:00,
2013-01-23 09:17:00,8.4,-4.4,30.12,NW,322,6.3,6.3,55,0.00,,---,0.00,VWS V14.01,2013-01-23 15:17:00,
2013-01-23 09:22:00,8.4,-4.4,30.12,West,274,5.4,8.7,55,0.00,,---,0.00,VWS V14.01,2013-01-23 15:22:00,
2013-01-23 09:28:00,8.6,-4.2,30.12,NW,318,7.6,7.6,55,0.00,,---,0.00,VWS V14.01,2013-01-23 15:28:00,
2013-01-23 09:33:00,8.8,-4.1,30.12,WNW,299,5.8,13.6,55,0.00,,---,0.00,VWS V14.01,2013-01-23 15:33:00,
2013-01-23 09:39:00,9.0,-3.9,30.12,WNW,285,10.5,10.5,55,0.00,,---,0.00,VWS V14.01,2013-01-23 15:39:00,
2013-01-23 09:44:00,9.1,-3.7,30.15,WNW,291,4.9,8.7,55,0.00,,---,0.00,VWS V14.01,2013-01-23 15:44:00,
2013-01-23 09:50:00,9.3,-3.6,30.15,WNW,295,8.1,8.1,55,0.00,,---,0.00,VWS V14.01,2013-01-23 15:50:00,
2013-01-23 09:55:00,9.5,-3.4,30.15,NW,308,10.1,11.0,55,0.00,,---,0.00,VWS V14.01,2013-01-23 15:55:00,
2013-01-23 10:00:00,9.5,-3.4,30.15,WNW,303,8.1,11.9,55,0.00,,---,0.00,VWS V14.01,2013-01-23 16:00:00,
2013-01-23 10:06:00,9.7,-3.2,30.15,NW,308,11.0,13.2,55,0.00,,---,0.00,VWS V14.01,2013-01-23 16:06:00,
2013-01-23 10:11:00,9.9,-3.1,30.15,WNW,297,11.4,11.4,55,0.00,,---,0.00,VWS V14.01,2013-01-23 16:11:00,
2013-01-23 10:17:00,10.0,-2.9,30.15,NW,312,6.3,8.3,55,0.00,,---,0.00,VWS V14.01,2013-01-23 16:17:00,
2013-01-23 10:22:00,10.2,-2.7,30.15,NW,306,5.8,12.8,55,0.00,,---,0.00,VWS V14.01,2013-01-23 16:22:00,
2013-01-23 10:27:00,10.6,-2.4,30.15,WNW,285,7.6,10.1,55,0.00,,---,0.00,VWS V14.01,2013-01-23 16:27:00,
2013-01-23 10:32:00,10.8,-2.2,30.15,NNW,340,14.1,19.2,55,0.00,,---,0.00,VWS V14.01,2013-01-23 16:32:00,
2013-01-23 10:38:00,10.9,-2.0,30.15,NW,324,9.6,13.6,55,0.00,,---,0.00,VWS V14.01,2013-01-23 16:38:00,
2013-01-23 10:43:00,10.9,-2.0,30.15,NW,318,11.0,16.3,55,0.00,,---,0.00,VWS V14.01,2013-01-23 16:43:00,
2013-01-23 10:48:00,11.3,-1.7,30.15,NW,307,14.5,17.9,55,0.00,,---,0.00,VWS V14.01,2013-01-23 16:48:00,
2013-01-23 10:53:00,11.1,-1.9,30.15,WNW,299,11.0,11.0,55,0.00,,---,0.00,VWS V14.01,2013-01-23 16:53:00,
2013-01-23 10:59:00,11.1,-1.9,30.18,NW,322,17.0,17.0,55,0.00,,---,0.00,VWS V14.01,2013-01-23 16:59:00,
2013-01-23 11:04:00,11.3,-1.7,30.18,NW,322,5.8,12.8,55,0.00,,---,0.00,VWS V14.01,2013-01-23 17:04:00,
2013-01-23 11:09:00,11.8,-1.2,30.18,WNW,285,14.1,18.8,55,0.00,,---,0.00,VWS V14.01,2013-01-23 17:09:00,
2013-01-23 11:14:00,12.0,-1.0,30.18,NW,317,8.1,14.5,55,0.00,,---,0.00,VWS V14.01,2013-01-23 17:14:00,
2013-01-23 11:19:00,12.6,-0.5,30.18,NW,313,8.7,15.0,55,0.00,,---,0.00,VWS V14.01,2013-01-23 17:19:00,
2013-01-23 11:24:00,11.7,-1.4,30.18,NW,311,10.1,19.2,55,0.00,,---,0.00,VWS V14.01,2013-01-23 17:24:00,
2013-01-23 11:30:00,10.8,-2.2,30.18,NW,308,15.4,21.5,55,0.00,,---,0.00,VWS V14.01,2013-01-23 17:30:00,
2013-01-23 11:35:00,11.1,-1.9,30.18,NW,323,10.5,15.0,55,0.00,,---,0.00,VWS V14.01,2013-01-23 17:35:00,
2013-01-23 11:41:00,11.7,-1.4,30.18,WNW,284,14.5,14.5,55,0.00,,---,0.00,VWS V14.01,2013-01-23 17:41:00,
2013-01-23 11:46:00,11.7,-1.4,30.18,NNW,331,12.8,15.9,55,0.00,,---,0.00,VWS V14.01,2013-01-23 17:46:00,
2013-01-23 11:51:00,11.1,-1.9,30.18,WNW,282,6.3,10.5,55,0.00,,---,0.00,VWS V14.01,2013-01-23 17:51:00,
2013-01-23 11:56:00,10.9,-2.0,30.18,NW,321,15.4,17.4,55,0.00,,---,0.00,VWS V14.01,2013-01-23 17:56:00,
2013-01-23 12:02:00,10.4,-2.6,30.18,NW,319,12.8,15.4,55,0.00,,---,0.00,VWS V14.01,2013-01-23 18:02:00,
2013-01-23 12:07:00,10.4,-2.6,30.18,NNW,333,8.7,9.2,55,0.00,,---,0.00,VWS V14.01,2013-01-23 18:07:00,
2013-01-23 12:13:00,10.4,-2.6,30.18,WNW,292,10.1,18.3,55,0.00,,---,0.00,VWS V14.01,2013-01-23 18:13:00,
2013-01-23 12:18:00,10.4,-2.6,30.18,NW,319,21.0,21.0,55,0.00,,---,0.00,VWS V14.01,2013-01-23 18:18:00,
2013-01-23 12:23:00,9.7,-3.2,30.18,WNW,297,14.5,21.5,55,0.00,,---,0.00,VWS V14.01,2013-01-23 18:23:00,
2013-01-23 12:28:00,9.7,-3.2,30.21,NNW,334,14.5,17.4,55,0.00,,---,0.00,VWS V14.01,2013-01-23 18:28:00,
2013-01-23 12:34:00,9.1,-3.7,30.21,NW,323,19.7,19.7,55,0.00,,---,0.00,VWS V14.01,2013-01-23 18:34:00,
2013-01-23 12:39:00,8.8,-4.1,30.21,NNW,332,17.0,21.9,55,0.00,,---,0.00,VWS V14.01,2013-01-23 18:39:00,
2013-01-23 12:45:00,8.6,-4.2,30.21,NW,322,12.8,17.4,55,0.00,,---,0.00,VWS V14.01,2013-01-23 18:45:00,
2013-01-23 12:50:00,8.4,-4.4,30.21,NW,324,8.3,18.8,55,0.00,,---,0.00,VWS V14.01,2013-01-23 18:50:00,
2013-01-23 12:55:00,8.6,-4.2,30.21,NW,311,9.2,13.2,55,0.00,,---,0.00,VWS V14.01,2013-01-23 18:55:00,
2013-01-23 13:00:00,8.8,-4.1,30.21,WNW,294,15.4,17.4,55,0.00,,---,0.00,VWS V14.01,2013-01-23 19:00:00,
2013-01-23 13:06:00,8.6,-4.2,30.21,NW,306,13.2,14.5,55,0.00,,---,0.00,VWS V14.01,2013-01-23 19:06:00,
2013-01-23 13:12:00,8.8,-4.1,30.21,North,353,15.9,15.9,55,0.00,,---,0.00,VWS V14.01,2013-01-23 19:12:00,
2013-01-23 13:17:00,8.6,-4.2,30.21,NW,304,10.5,12.8,55,0.00,,---,0.00,VWS V14.01,2013-01-23 19:17:00,
2013-01-23 13:23:00,8.1,-4.8,30.21,NW,317,11.0,14.5,55,0.00,,---,0.00,VWS V14.01,2013-01-23 19:23:00,
2013-01-23 13:29:00,7.9,-4.9,30.21,NW,326,22.4,25.1,55,0.00,,---,0.00,VWS V14.01,2013-01-23 19:29:00,
2013-01-23 13:34:00,7.9,-4.9,30.21,WNW,291,12.8,17.4,55,0.00,,---,0.00,VWS V14.01,2013-01-23 19:34:00,
2013-01-23 13:39:00,7.7,-5.1,30.21,NNW,331,8.3,14.5,55,0.00,,---,0.00,VWS V14.01,2013-01-23 19:39:00,
2013-01-23 13:44:00,7.7,-5.1,30.21,NW,305,8.7,15.4,55,0.00,,---,0.00,VWS V14.01,2013-01-23 19:44:00,
2013-01-23 13:49:00,7.5,-5.3,30.21,NW,313,15.4,19.7,55,0.00,,---,0.00,VWS V14.01,2013-01-23 19:49:00,
2013-01-23 13:55:00,7.2,-5.6,30.21,NW,310,20.1,20.1,55,0.00,,---,0.00,VWS V14.01,2013-01-23 19:55:00,
2013-01-23 14:01:00,6.8,-5.9,30.24,WNW,303,17.9,19.2,55,0.00,,---,0.00,VWS V14.01,2013-01-23 20:01:00,
2013-01-23 14:06:00,6.8,-5.9,30.24,NW,314,15.4,16.3,55,0.00,,---,0.00,VWS V14.01,2013-01-23 20:06:00,
2013-01-23 14:11:00,6.6,-6.1,30.24,NW,320,17.4,21.9,55,0.00,,---,0.00,VWS V14.01,2013-01-23 20:11:00,
2013-01-23 14:16:00,6.8,-5.9,30.24,NNW,336,11.0,11.0,55,0.00,,---,0.00,VWS V14.01,2013-01-23 20:16:00,
2013-01-23 14:21:00,6.4,-6.3,30.24,NW,323,8.3,14.1,55,0.00,,---,0.00,VWS V14.01,2013-01-23 20:21:00,
2013-01-23 14:26:00,6.3,-6.4,30.27,North,353,12.3,17.4,55,0.00,,---,0.00,VWS V14.01,2013-01-23 20:26:00,
2013-01-23 14:32:00,6.4,-6.3,30.27,NNW,343,10.5,15.9,55,0.00,,---,0.00,VWS V14.01,2013-01-23 20:32:00,
2013-01-23 14:37:00,6.3,-6.4,30.27,NNW,332,14.1,17.4,55,0.00,,---,0.00,VWS V14.01,2013-01-23 20:37:00,
2013-01-23 14:43:00,5.5,-7.1,30.27,NNW,329,11.0,22.4,55,0.00,,---,0.00,VWS V14.01,2013-01-23 20:43:00,
2013-01-23 14:48:00,5.5,-7.1,30.27,NNW,335,17.4,17.4,55,0.00,,---,0.00,VWS V14.01,2013-01-23 20:48:00,
2013-01-23 14:54:00,5.4,-7.3,30.27,NNW,334,14.1,17.4,55,0.00,,---,0.00,VWS V14.01,2013-01-23 20:54:00,
2013-01-23 14:59:00,5.0,-7.6,30.29,North,349,16.8,19.7,55,0.00,,---,0.00,VWS V14.01,2013-01-23 20:59:00,
2013-01-23 15:05:00,5.0,-7.6,30.29,North,350,16.8,16.8,55,0.00,,---,0.00,VWS V14.01,2013-01-23 21:05:00,
2013-01-23 15:11:00,4.8,-7.8,30.29,North,353,8.7,18.8,55,0.00,,---,0.00,VWS V14.01,2013-01-23 21:11:00,
2013-01-23 15:16:00,4.5,-8.1,30.29,NNW,334,14.5,18.3,55,0.00,,---,0.00,VWS V14.01,2013-01-23 21:16:00,
2013-01-23 15:22:00,4.1,-8.5,30.29,North,0,11.0,17.9,55,0.00,,---,0.00,VWS V14.01,2013-01-23 21:22:00,
2013-01-23 15:27:00,3.9,-8.6,30.29,NNW,328,12.8,15.0,55,0.00,,---,0.00,VWS V14.01,2013-01-23 21:27:00,
2013-01-23 15:33:00,3.7,-8.8,30.29,NW,307,10.1,12.8,55,0.00,,---,0.00,VWS V14.01,2013-01-23 21:33:00,
2013-01-23 15:39:00,3.4,-9.1,30.29,NW,325,6.7,14.5,55,0.00,,---,0.00,VWS V14.01,2013-01-23 21:39:00,
2013-01-23 15:44:00,3.2,-9.3,30.32,NNW,341,11.9,11.9,55,0.00,,---,0.00,VWS V14.01,2013-01-23 21:44:00,
2013-01-23 15:50:00,3.2,-9.3,30.32,NNW,335,11.0,11.0,55,0.00,,---,0.00,VWS V14.01,2013-01-23 21:50:00,
2013-01-23 15:56:00,2.8,-9.6,30.32,NNW,333,12.8,17.0,55,0.00,,---,0.00,VWS V14.01,2013-01-23 21:56:00,
2013-01-23 16:01:00,2.7,-9.8,30.32,North,353,12.3,12.3,55,0.00,,---,0.00,VWS V14.01,2013-01-23 22:01:00,
2013-01-23 16:07:00,2.5,-10.0,30.32,NNW,333,14.5,14.5,55,0.00,,---,0.00,VWS V14.01,2013-01-23 22:07:00,
2013-01-23 16:12:00,2.1,-10.3,30.32,NNW,340,13.2,13.2,55,0.00,,---,0.00,VWS V14.01,2013-01-23 22:12:00,
2013-01-23 16:18:00,1.8,-10.7,30.32,NNW,332,8.1,10.5,55,0.00,,---,0.00,VWS V14.01,2013-01-23 22:18:00,
2013-01-23 16:23:00,1.6,-10.8,30.32,NNW,332,8.7,13.6,55,0.00,,---,0.00,VWS V14.01,2013-01-23 22:23:00,
2013-01-23 16:29:00,1.4,-11.0,30.35,NNW,348,11.4,11.4,55,0.00,,---,0.00,VWS V14.01,2013-01-23 22:29:00,
2013-01-23 16:34:00,1.2,-11.2,30.35,NNW,335,12.3,12.3,55,0.00,,---,0.00,VWS V14.01,2013-01-23 22:34:00,
2013-01-23 16:40:00,1.2,-11.2,30.35,WNW,302,7.6,12.3,55,0.00,,---,0.00,VWS V14.01,2013-01-23 22:40:00,
2013-01-23 16:45:00,0.7,-11.7,30.35,NNW,344,11.0,12.8,55,0.00,,---,0.00,VWS V14.01,2013-01-23 22:45:00,
2013-01-23 16:50:00,0.3,-12.0,30.35,NNW,334,5.8,8.7,55,0.00,,---,0.00,VWS V14.01,2013-01-23 22:50:00,
2013-01-23 16:55:00,0.0,-12.4,30.35,NW,321,7.2,10.5,55,0.00,,---,0.00,VWS V14.01,2013-01-23 22:55:00,
2013-01-23 17:00:00,0.0,-12.4,30.38,NW,324,5.8,8.7,55,0.00,,---,0.00,VWS V14.01,2013-01-23 23:00:00,
2013-01-23 17:06:00,-0.4,-12.7,30.38,NNW,335,7.2,8.3,55,0.00,,---,0.00,VWS V14.01,2013-01-23 23:06:00,
2013-01-23 17:11:00,-0.6,-12.9,30.38,NNW,345,15.0,15.0,55,0.00,,---,0.00,VWS V14.01,2013-01-23 23:11:00,
2013-01-23 17:16:00,-0.8,-13.0,30.38,NNW,338,10.1,11.0,55,0.00,,---,0.00,VWS V14.01,2013-01-23 23:16:00,
2013-01-23 17:21:00,-0.9,-13.2,30.38,NW,324,7.6,9.6,55,0.00,,---,0.00,VWS V14.01,2013-01-23 23:21:00,
2013-01-23 17:27:00,-1.3,-13.5,30.38,North,0,5.8,10.5,55,0.00,,---,0.00,VWS V14.01,2013-01-23 23:27:00,
2013-01-23 17:32:00,-1.5,-13.7,30.38,NW,324,5.4,5.8,55,0.00,,---,0.00,VWS V14.01,2013-01-23 23:32:00,
2013-01-23 17:38:00,-1.7,-13.9,30.38,NNW,329,6.3,8.1,55,0.00,,---,0.00,VWS V14.01,2013-01-23 23:38:00,
2013-01-23 17:43:00,-1.8,-14.1,30.41,NNW,338,5.8,8.7,55,0.00,,---,0.00,VWS V14.01,2013-01-23 23:43:00,
2013-01-23 17:48:00,-2.2,-14.4,30.41,NNW,334,8.1,8.3,55,0.00,,---,0.00,VWS V14.01,2013-01-23 23:48:00,
2013-01-23 17:53:00,-2.2,-14.4,30.41,NW,305,5.8,8.7,55,0.00,,---,0.00,VWS V14.01,2013-01-23 23:53:00,
2013-01-23 17:58:00,-2.2,-14.4,30.44,WNW,302,11.9,13.2,55,0.00,,---,0.00,VWS V14.01,2013-01-23 23:58:00,
2013-01-23 18:04:00,-2.2,-14.4,30.44,NW,310,8.1,8.1,55,0.00,,---,0.00,VWS V14.01,2013-01-24 00:04:00,
2013-01-23 18:10:00,-2.4,-14.6,30.44,NNW,327,5.4,5.8,55,0.00,,---,0.00,VWS V14.01,2013-01-24 00:10:00,
2013-01-23 18:15:00,-2.6,-14.7,30.44,North,0,8.3,8.3,55,0.00,,---,0.00,VWS V14.01,2013-01-24 00:15:00,
2013-01-23 18:20:00,-2.7,-14.9,30.44,NW,316,8.3,8.3,55,0.00,,---,0.00,VWS V14.01,2013-01-24 00:20:00,
2013-01-23 18:25:00,-2.9,-15.1,30.44,NNW,344,4.9,10.5,55,0.00,,---,0.00,VWS V14.01,2013-01-24 00:25:00,
2013-01-23 18:31:00,-3.1,-15.2,30.44,NNW,342,4.0,6.3,55,0.00,,---,0.00,VWS V14.01,2013-01-24 00:31:00,
2013-01-23 18:37:00,-3.3,-15.4,30.44,North,5,6.3,6.3,55,0.00,,---,0.00,VWS V14.01,2013-01-24 00:37:00,
2013-01-23 18:42:00,-3.5,-15.6,30.44,NNW,328,8.1,8.3,55,0.00,,---,0.00,VWS V14.01,2013-01-24 00:42:00,
2013-01-23 18:48:00,-3.5,-15.6,30.44,NW,321,4.9,8.7,55,0.00,,---,0.00,VWS V14.01,2013-01-24 00:48:00,
2013-01-23 18:53:00,-3.5,-15.6,30.44,NNW,340,5.8,6.7,55,0.00,,---,0.00,VWS V14.01,2013-01-24 00:53:00,
2013-01-23 18:58:00,-3.8,-15.9,30.44,NNW,340,7.6,7.6,55,0.00,,---,0.00,VWS V14.01,2013-01-24 00:58:00,
2013-01-23 19:03:00,-4.0,-16.1,30.44,NNE,13,6.3,6.3,55,0.00,,---,0.00,VWS V14.01,2013-01-24 01:03:00,
2013-01-23 19:09:00,-4.2,-16.2,30.44,North,357,3.1,4.0,55,0.00,,---,0.00,VWS V14.01,2013-01-24 01:09:00,
2013-01-23 19:14:00,-4.4,-16.4,30.47,North,3,2.7,5.8,55,0.00,,---,0.00,VWS V14.01,2013-01-24 01:14:00,
2013-01-23 19:20:00,-4.4,-16.4,30.47,North,2,4.0,8.7,55,0.00,,---,0.00,VWS V14.01,2013-01-24 01:20:00,
2013-01-23 19:25:00,-4.2,-16.2,30.47,NNE,15,7.6,8.7,55,0.00,,---,0.00,VWS V14.01,2013-01-24 01:25:00,
2013-01-23 19:31:00,-4.4,-16.4,30.47,North,353,6.3,9.6,55,0.00,,---,0.00,VWS V14.01,2013-01-24 01:31:00,
2013-01-23 19:36:00,-4.4,-16.4,30.47,NNE,12,5.8,6.3,55,0.00,,---,0.00,VWS V14.01,2013-01-24 01:36:00,
2013-01-23 19:42:00,-4.4,-16.4,30.47,NNE,31,5.8,7.6,55,0.00,,---,0.00,VWS V14.01,2013-01-24 01:42:00,
2013-01-23 19:47:00,-4.7,-16.8,30.47,North,353,4.0,6.3,55,0.00,,---,0.00,VWS V14.01,2013-01-24 01:47:00,
2013-01-23 19:52:00,-5.1,-17.1,30.47,North,3,4.0,4.0,55,0.00,,---,0.00,VWS V14.01,2013-01-24 01:52:00,
2013-01-23 19:58:00,-5.1,-17.1,30.47,NNW,343,6.3,8.7,55,0.00,,---,0.00,VWS V14.01,2013-01-24 01:58:00,
2013-01-23 20:03:00,-5.1,-17.1,30.47,NE,35,8.3,8.3,55,0.00,,---,0.00,VWS V14.01,2013-01-24 02:03:00,
2013-01-23 20:09:00,-5.4,-17.4,30.47,North,8,8.7,8.7,55,0.00,,---,0.00,VWS V14.01,2013-01-24 02:09:00,
2013-01-23 20:14:00,-5.6,-17.6,30.47,North,8,8.3,8.3,55,0.00,,---,0.00,VWS V14.01,2013-01-24 02:14:00,
2013-01-23 20:20:00,-5.8,-17.8,30.47,NNE,27,7.6,10.1,55,0.00,,---,0.00,VWS V14.01,2013-01-24 02:20:00,
2013-01-23 20:25:00,-6.0,-17.9,30.47,North,353,3.6,5.8,55,0.00,,---,0.00,VWS V14.01,2013-01-24 02:25:00,
2013-01-23 20:31:00,-6.3,-18.3,30.50,NNE,30,3.1,8.1,55,0.00,,---,0.00,VWS V14.01,2013-01-24 02:31:00,
2013-01-23 20:37:00,-6.3,-18.3,30.50,NNW,338,8.1,10.5,55,0.00,,---,0.00,VWS V14.01,2013-01-24 02:37:00,
2013-01-23 20:42:00,-6.3,-18.3,30.50,North,11,4.9,6.7,55,0.00,,---,0.00,VWS V14.01,2013-01-24 02:42:00,
2013-01-23 20:47:00,-6.3,-18.3,30.50,NE,44,5.8,11.0,55,0.00,,---,0.00,VWS V14.01,2013-01-24 02:47:00,
2013-01-23 20:52:00,-6.5,-18.5,30.50,NNE,22,11.4,12.3,55,0.00,,---,0.00,VWS V14.01,2013-01-24 02:52:00,
2013-01-23 20:58:00,-6.7,-18.6,30.50,North,7,4.9,10.1,55,0.00,,---,0.00,VWS V14.01,2013-01-24 02:58:00,
2013-01-23 21:03:00,-7.1,-19.0,30.50,North,357,5.4,8.1,55,0.00,,---,0.00,VWS V14.01,2013-01-24 03:03:00,
2013-01-23 21:09:00,-7.4,-19.3,30.50,NNW,334,4.9,10.1,55,0.00,,---,0.00,VWS V14.01,2013-01-24 03:09:00,
2013-01-23 21:15:00,-7.4,-19.3,30.50,North,0,7.6,7.6,55,0.00,,---,0.00,VWS V14.01,2013-01-24 03:15:00,
2013-01-23 21:20:00,-7.4,-19.3,30.50,NNE,13,3.1,8.1,55,0.00,,---,0.00,VWS V14.01,2013-01-24 03:20:00,
2013-01-23 21:25:00,-7.6,-19.5,30.50,North,349,8.7,8.7,55,0.00,,---,0.00,VWS V14.01,2013-01-24 03:25:00,
2013-01-23 21:30:00,-7.6,-19.5,30.53,NE,55,10.1,10.1,55,0.00,,---,0.00,VWS V14.01,2013-01-24 03:30:00,
2013-01-23 21:36:00,-7.8,-19.6,30.53,North,3,5.8,7.2,55,0.00,,---,0.00,VWS V14.01,2013-01-24 03:36:00,
2013-01-23 21:41:00,-7.8,-19.6,30.53,NNE,14,6.3,8.7,55,0.00,,---,0.00,VWS V14.01,2013-01-24 03:41:00,
2013-01-23 21:46:00,-7.8,-19.6,30.53,North,3,4.0,8.7,55,0.00,,---,0.00,VWS V14.01,2013-01-24 03:46:00,
2013-01-23 21:51:00,-8.0,-19.8,30.53,North,3,4.0,6.3,55,0.00,,---,0.00,VWS V14.01,2013-01-24 03:51:00,
2013-01-23 21:56:00,-8.0,-19.8,30.53,NNW,340,7.6,7.6,55,0.00,,---,0.00,VWS V14.01,2013-01-24 03:56:00,
2013-01-23 22:02:00,-8.0,-19.8,30.53,NNE,15,5.8,7.6,55,0.00,,---,0.00,VWS V14.01,2013-01-24 04:02:00,
2013-01-23 22:08:00,-8.1,-20.0,30.53,North,353,5.8,5.8,55,0.00,,---,0.00,VWS V14.01,2013-01-24 04:08:00,
2013-01-23 22:13:00,-8.5,-20.3,30.56,North,1,3.1,4.9,55,0.00,,---,0.00,VWS V14.01,2013-01-24 04:13:00,
2013-01-23 22:18:00,-8.7,-20.5,30.56,NNE,25,5.4,8.7,55,0.00,,---,0.00,VWS V14.01,2013-01-24 04:18:00,
2013-01-23 22:24:00,-8.9,-20.6,30.56,North,9,6.3,6.3,55,0.00,,---,0.00,VWS V14.01,2013-01-24 04:24:00,
2013-01-23 22:29:00,-8.9,-20.6,30.56,NE,37,0.0,3.1,55,0.00,,---,0.00,VWS V14.01,2013-01-24 04:29:00,
2013-01-23 22:34:00,-9.0,-20.8,30.56,North,2,4.0,4.9,55,0.00,,---,0.00,VWS V14.01,2013-01-24 04:34:00,
2013-01-23 22:39:00,-9.0,-20.8,30.56,North,5,3.1,8.1,55,0.00,,---,0.00,VWS V14.01,2013-01-24 04:39:00,
2013-01-23 22:44:00,-9.2,-21.0,30.56,NNE,13,5.8,5.8,55,0.00,,---,0.00,VWS V14.01,2013-01-24 04:44:00,
2013-01-23 22:50:00,-9.2,-21.0,30.56,North,2,5.4,6.3,55,0.00,,---,0.00,VWS V14.01,2013-01-24 04:50:00,
2013-01-23 22:55:00,-9.4,-21.2,30.56,North,2,0.0,5.4,55,0.00,,---,0.00,VWS V14.01,2013-01-24 04:55:00,
2013-01-23 23:00:00,-9.6,-21.3,30.56,North,2,6.3,6.3,55,0.00,,---,0.00,VWS V14.01,2013-01-24 05:00:00,
2013-01-23 23:03:00,-9.6,-21.3,30.56,North,1,5.8,6.3,55,0.00,,---,0.00,VWS V14.01,2013-01-24 05:03:00,
2013-01-23 23:04:00,-9.6,-21.3,30.56,North,10,3.6,6.3,55,0.00,,---,0.00,VWS V14.01,2013-01-24 05:04:00,
2013-01-23 23:09:00,-9.6,-21.3,30.56,NNE,28,5.8,5.8,55,0.00,,---,0.00,VWS V14.01,2013-01-24 05:09:00,
2013-01-23 23:10:00,-9.6,-21.3,30.56,North,353,2.7,6.3,55,0.00,,---,0.00,VWS V14.01,2013-01-24 05:10:00,
2013-01-23 23:15:00,-9.6,-21.3,30.56,NNW,344,2.7,5.8,55,0.00,,---,0.00,VWS V14.01,2013-01-24 05:15:00,
2013-01-23 23:21:00,-9.6,-21.3,30.56,NNE,17,2.7,6.3,55,0.00,,---,0.00,VWS V14.01,2013-01-24 05:21:00,
2013-01-23 23:26:00,-9.6,-21.3,30.56,NNE,13,3.6,4.9,55,0.00,,---,0.00,VWS V14.01,2013-01-24 05:26:00,
2013-01-23 23:31:00,-9.6,-21.3,30.56,North,6,3.1,6.3,55,0.00,,---,0.00,VWS V14.01,2013-01-24 05:31:00,
2013-01-23 23:36:00,-9.6,-21.3,30.56,North,357,4.0,5.4,55,0.00,,---,0.00,VWS V14.01,2013-01-24 05:36:00,
2013-01-23 23:42:00,-9.6,-21.3,30.59,North,357,5.8,5.8,55,0.00,,---,0.00,VWS V14.01,2013-01-24 05:42:00,
2013-01-23 23:47:00,-9.6,-21.3,30.59,North,357,3.1,4.9,55,0.00,,---,0.00,VWS V14.01,2013-01-24 05:47:00,
2013-01-23 23:52:00,-9.6,-21.3,30.59,North,357,4.0,8.7,55,0.00,,---,0.00,VWS V14.01,2013-01-24 05:52:00,
2013-01-23 23:57:00,-9.8,-21.5,30.59,NNE,16,5.4,8.1,55,0.00,,---,0.00,VWS V14.01,2013-01-24 05:57:00,